Погода в Малом Дюрягине

Россия / Курганская область     55°11′56″N   63°13′33″E
темп.,
°C
ветер,
м/с
пор.,
м/с
влажн.,
%
обл.,
%
осадки,
мм/ч
давл.,
гПа
погр.,
м
18 апреля, вс
вс1823:00+6юз33768 0.0 102025
02:00+5сз23800 0.0 101823
05:00+3сз34695 0.0 101865
08:00+6зсз49635 0.0 1016309
11:00+10ссз810488 0.0 10161559
14:00+6с9114684 0.0 10201311
17:00+4ссв9113526 0.0 10231821
20:00+1св711383 0.0 10271102
19 апреля, пн
пн1923:00−1св59410 0.0 1030950
02:00−3св58430 0.0 10321042
05:00−4св37460 0.0 10341022
08:00−3св57415 0.0 10341185
11:00−1св57312 0.0 10341584
14:00+1св67295 0.0 10341907
17:00+2ссв67285 0.0 10332023
20:00−1всв33405 0.0 103441
20 апреля, вт
вт2023:00−2юв11415 0.0 103510
02:00−2з22400 0.0 103518
05:00−3зсз23470 0.0 103556
08:000сз35395 0.0 1035421
11:00+4зсз443112 0.0 10341442
14:00+6зсз56305 0.0 10321653
17:00+8зсз57325 0.0 10301806
20:00+5з35470 0.0 102965
21 апреля, ср
ср2123:00+3зсз36555 0.0 102995
02:00+2сз49690 0.0 1029155
05:000сз36770 0.0 1030107
08:00+4ссз46634 0.0 1031282
11:00+8с45515 0.0 10321074
14:00+11с44425 0.0 10321690
17:00+12ссв34397 0.0 10311689
20:00+8в36578 0.0 1033127
22 апреля, чт
чт2223:00+6юв33605 0.0 103527
02:00+4ююв34685 0.0 103554
05:00+3ююв34724 0.0 103646
08:00+7ююв35615 0.0 1037232
11:00+11ююв44455 0.0 10371116
14:00+13ю45385 0.0 10361782
17:00+14ю553728 0.0 10351938
20:00+10юв4950100 0.0 1036185